This is the latest recevied weather packets stored in our database for station/object HJ3GNC-11. If no packets are shown the sender has not sent any weather packets the latest 10 day(s).
| Time | Temp. | Humidity | Pressure | Rain* | Wind** | Luminosity | Snow |
|---|---|---|---|---|---|---|---|
| 1777751795 | 13.33° C | 89% | 1014 hPa | 0 mm | - | - | - |
| 1777750855 | 15.56° C | 86% | 1014 hPa | 0 mm | - | - | - |
| 1777747993 | 14.44° C | 86% | 1014 hPa | 0 mm | - | - | - |
| 1777747044 | 17.22° C | 82% | 1014 hPa | 0 mm | - | - | - |
| 1777746096 | 16.11° C | 82% | 1015 hPa | 0 mm | - | - | - |
| 1777745154 | 15° C | 82% | 1015 hPa | 0 mm | - | - | - |
| 1777744210 | 16.67° C | 82% | 1015 hPa | 0 mm | - | - | - |
| 1777743267 | 15.56° C | 82% | 1015 hPa | 0 mm | - | - | - |
| 1777742302 | 18.33° C | 79% | 1015 hPa | 0 mm | - | - | - |
| 1777741360 | 17.22° C | 79% | 1015 hPa | 0 mm | - | - | - |
| 1777740418 | 16.11° C | 79% | 1015 hPa | 0 mm | - | - | - |
| 1777739477 | 18.33° C | 81% | 1015 hPa | 0 mm | - | - | - |
| 1777738535 | 17.22° C | 81% | 1015 hPa | 0 mm | - | - | - |
| 1777737594 | 16.11° C | 81% | 1015 hPa | 0 mm | - | - | - |
| 1777736653 | 15° C | 81% | 1016 hPa | 0 mm | - | - | - |
| 1777735712 | 18.33° C | 93% | 1016 hPa | 0 mm | - | - | - |
| 1777734678 | 17.22° C | 93% | 1016 hPa | 0 mm | - | - | - |
| 1777733691 | 16.11° C | 93% | 1016 hPa | 0 mm | - | - | - |
| 1777732733 | 15° C | 93% | 1017 hPa | 0 mm | - | - | - |
| 1777731751 | 13.89° C | 93% | 1017 hPa | 0 mm | - | - | - |
| 1777730772 | 17.78° C | 92% | 1017 hPa | 0 mm | - | - | - |
| 1777729775 | 16.67° C | 92% | 1017 hPa | 0 mm | - | - | - |
| 1777728795 | 15.56° C | 92% | 1017 hPa | 0 mm | - | - | - |
| 1777727843 | 14.44° C | 92% | 1018 hPa | 0 mm | - | - | - |
| 1777726903 | 13.33° C | 92% | 1018 hPa | 0 mm | - | - | - |
* Rain latest hour (hover to see other rain measurements)
** Current wind speed in m/s (hover to see current wind gust speed)